Location: Pitton
(51.0667°N, 1.7000°W)
Time: 22:15:33
(UTC+00:00)

SJ-6B - Pass Details

Date: 17 September 2019
Orbit: 509 x 583 km, 97.6° (Epoch: 20 October)

Event Time Altitude Azimuth Distance (km) Brightness Sun altitude
Exits shadow 20:13:13 - 188° (S) 2,238 5.7 -18.2°
Reaches altitude 10° 20:14:05 10° 192° (SSW) 1,899 5.4 -18.4°
Maximum altitude 20:17:58 39° 262° (W) 876 4.2 -18.9°
Drops below altitude 10° 20:21:51 10° 333° (NNW) 1,895 6.4 -19.4°
Sets 20:24:06 0° 341° (NNW) 2,789 7.2 -19.7°
